weather.gov     
National Weather Service

Terminal Aerodrome Forecast
NWS Homepage
This page is being discontinued on March 12, 2014.
The same data is available at this site. Please update your bookmarks.
Thank you, and we apologize for the inconvenience.
Please send an email to SR-SRH.Webmaster@noaa.gov with any concerns.


Current Version
Previous Version:    01  02  03  04  05  06  07  08  09  10  11  12  13  14  15  16  17  18  19  20  21  22  23  24  25  26  27  28  29  30  
   31  32  33  34  35  36  37  38  39  40  41  
[Printable]
660
FTUS44 KHGX 312120 AAA
TAFGLS
TAF AMD
KGLS 312120Z 3121/0118 09009G17KT 5SM BR SCT022 BKN040
     FM010000 10014KT 4SM BR BKN030
      TEMPO 0100/0104 1SM BR
     FM010600 13012KT 4SM BR VCSH OVC012
     FM010900 12010KT 4SM -RA BR OVC007=




660
FTUS44 KHGX 312120 AAA
TAFGLS
TAF AMD
KGLS 312120Z 3121/0118 09009G17KT 5SM BR SCT022 BKN040
     FM010000 10014KT 4SM BR BKN030
      TEMPO 0100/0104 1SM BR
     FM010600 13012KT 4SM BR VCSH OVC012
     FM010900 12010KT 4SM -RA BR OVC007=


U.S. Dept. of Commerce
NOAA National Weather Service
1325 East West Highway
Silver Spring, MD 20910
E-mail: w-nws.webmaster@noaa.gov
Page last modified: May 16, 2007
NATIONAL WEATHER SERVICE: for Safety, for Work, for Fun - FOR LIFE